Regional Weather Roundup
Issued by NWS

Home | Current Version | Previous Version | Text Only | Print | Product List | Glossary On
Versions: 1 2 3 4 5 6 7 8 9 10 11 12 13 14 15 16 17 18 19 20 21 22 23 24 25 26 27 28 29 30 31 32 33 34 35 36 37 38 39 40 41 42 43 44 45 46 47 48 49 50
000
ASUS43 KDMX 261806
RWRIA

WEATHER ROUNDUP FOR IOWA
NATIONAL WEATHER SERVICE DES MOINES IA
100 PM CDT SUN MAR 26 2017

NOTE: "FAIR" INDICATES FEW OR NO CLOUDS BELOW 12,000 FEET WITH NO
SIGNIFICANT WEATHER AND/OR OBSTRUCTIONS TO VISIBILITY.

* - THESE STATIONS ARE NOT NWS STATIONS...THUS NOT UNDER NWS
QUALITY CONTROL.  THEY ALSO DO NOT REPORT WEATHER SUCH
AS PRECIPITATION OR FOG.

IAZ001>003-012>014-020>022-031>034-043>046-261900-
   NORTHWEST IOWA

CITY           SKY/WX    TMP DP  RH WIND       PRES   REMARKS
CARROLL *      CLOUDY    43  43 100 N8        29.90R
CHEROKEE *     CLOUDY    43  40  89 N7        29.90F
LE MARS *      CLOUDY    45  37  76 N7        29.93S
ORANGE CITY *  CLOUDY    43  37  81 NE5       29.92R
SHELDON *      CLOUDY    43  43 100 N8        29.90S
SIOUX CITY     CLOUDY    44  38  79 N5        29.94R
6HR MIN TEMP:  39; 6HR MAX TEMP:  44;

SPENCER        CLOUDY    44  39  82 N10       29.90F
6HR MIN TEMP:  37; 6HR MAX TEMP:  44; 6HR PCP:  0.03;

STORM LAKE *     N/A     43  39  87 N9        29.89F
$$

IAZ055>058-069>071-079>083-090>094-261900-
   SOUTHWEST IOWA

CITY           SKY/WX    TMP DP  RH WIND       PRES   REMARKS
ATLANTIC *     CLOUDY    45  41  87 W5        29.91S
AUDUBON *      CLOUDY    43  39  87 NW5       29.91R
CLARINDA *     CLOUDY    45  43  93 W8        29.95S
COUNCIL BLFS * CLOUDY    43  43 100 NW8       29.93S
CRESTON *      CLOUDY    45  43  93 W8        29.91S
HARLAN  *      CLOUDY    45  45 100 NW7       29.94S
LAMONI         CLOUDY    45  41  86 W8        29.89S
6HR MIN TEMP:  40; 6HR MAX TEMP:  46;

RED OAK *      CLOUDY    46  43  87 W9        29.93S
SHENANDOAH *   CLOUDY    45  41  87 W5        29.94S
$$

IAZ047>049-059>061-072>074-084-261900-
   CENTRAL IOWA

CITY           SKY/WX    TMP DP  RH WIND       PRES   REMARKS
AMES           CLOUDY    45  44  97 NW10      29.87F
6HR MIN TEMP:  40; 6HR MAX TEMP:  45;

ANKENY *       CLOUDY    45  43  93 NW10      29.88F
BOONE *        CLOUDY    45  45 100 N10       29.86F
CHARITON *     CLOUDY    46  45  93 W8        29.88S
DES MOINES     CLOUDY    46  43  89 NW9       29.88F
6HR MIN TEMP:  41; 6HR MAX TEMP:  46; 6HR PCP: TRACE;

GRINNELL*      CLOUDY    44  44  98 W7        29.87S
MARSHALLTOWN   CLOUDY    44  43  96 NW6       29.86S
6HR MIN TEMP:  39; 6HR MAX TEMP:  44; 6HR PCP: TRACE;

NEWTON *       CLOUDY    45  43  93 W10       29.86S
PELLA *        CLOUDY    45  44  97 W9        29.88F
PERRY *        CLOUDY    44  42  95 N7        29.89S
$$

IAZ004>006-015-016-023>025-035-036-261900-
   NORTH CENTRAL IOWA

CITY           SKY/WX    TMP DP  RH WIND       PRES   REMARKS
ALGONA *       MOSUNNY   41  41 100 N9        29.89F
CLARION *      CLOUDY    43  43 100 NW9       29.88F
ESTHERVILLE    CLOUDY    40  40 100 N10       29.89F WCI  33
6HR MIN TEMP:  35; 6HR MAX TEMP:  40;

FORT DODGE *   CLOUDY    43  37  81 N6        29.89F
MASON CITY     CLOUDY    43  40  89 N7        29.88F
6HR MIN TEMP:  36; 6HR MAX TEMP:  43;

FOREST CITY *  CLOUDY    41  41 100 N9        29.88F
WEBSTER CITY * CLOUDY    43  41  93 N8        29.86F
IOWA FALLS *   CLOUDY    43  42  97 W8        29.88S
$$

IAZ007>011-017>019-026>030-037>042-050>054-066-261900-
   NORTHEAST IOWA

CITY           SKY/WX    TMP DP  RH WIND       PRES   REMARKS
CEDAR RAPIDS   FOG       45  45 100 W9        29.83R VSB 1/4
6HR MIN TEMP:  42; 6HR MAX TEMP:  46;

CHARLES CITY * CLOUDY    41  41 100 N7        29.87S
CLINTON *      LGT RAIN  54  53  97 SW6       29.81F FOG
DECORAH *      CLOUDY    41  39  93 N6        29.85S FOG
DUBUQUE        FOG       46  46 100 N6        29.82S VSB 1/4
6HR MIN TEMP:  41; 6HR MAX TEMP:  47; 6HR PCP:  0.01;

MONTICELLO *   CLOUDY    48  48 100 NE6       29.82S FOG
OELWEIN *      CLOUDY    43  43 100 N7        29.85S FOG
WATERLOO       CLOUDY    44  41  89 N6        29.86S
6HR MIN TEMP:  39; 6HR MAX TEMP:  44;

$$

IAZ064-065-067-068-078-261900-
   EAST CENTRAL IOWA

CITY           SKY/WX    TMP DP  RH WIND       PRES   REMARKS
DAVENPORT      CLOUDY    55  52  89 SW8       29.82S
6HR MIN TEMP:  47; 6HR MAX TEMP:  56;

IOWA CITY      CLOUDY    50  48  93 NW10      29.85R FOG
6HR MIN TEMP:  46; 6HR MAX TEMP:  51;

MUSCATINE *    CLOUDY    54  52  94 W8        29.83R FOG
QUAD CITIES    CLOUDY    54  50  86 S8        29.81S
6HR MIN TEMP:  50; 6HR MAX TEMP:  56;

$$

IAZ062-063-075>077-085>089-095>099-261900-
   SOUTHEAST IOWA

CITY           SKY/WX    TMP DP  RH WIND       PRES   REMARKS
BURLINGTON     CLOUDY    49  47  93 W13       29.84S
6HR MIN TEMP:  48; 6HR MAX TEMP:  53; 6HR PCP:  0.03;

FAIRFIELD *    CLOUDY    46  46 100 W14       29.85S
FORT MADISON * CLOUDY    48  48 100 W12       29.86S
KEOKUK *       CLOUDY    50  46  87 W12       29.86S
OSKALOOSA *    CLOUDY    45  45  99 W13       29.86F
OTTUMWA        CLOUDY    48  46  93 W12       29.86S
6HR MIN TEMP:  43; 6HR MAX TEMP:  48; 6HR PCP: TRACE;

WASHINGTON *   FOG       46  46 100 W10       29.86R VSB 1/4
$$

ABBREVIATIONS USED IN REMARKS
   TC - TEMPERATURES IN CELSIUS
  WCI - WIND CHILL INDEX
   HX - HEAT INDEX
  VSB - VISIBILITY
$$




USA.gov is the U.S. government's official web portal to all federal, state and local government web resources and services.